| time (UTC) | temp F | wind direction | speed MPH | gust MPH | rain 1hr in | rain 24hr in | rain mn in | humidity % | barometer mb |
| 20260507193138 | 57 | 257 | 0.0 | 0.0 | 0.00 | 0.24 | 0.00 | 81 | 1009.7 |
| 20260507192644 | 56 | 255 | 0.0 | 0.0 | 0.00 | 0.24 | 0.00 | 77 | 1009.7 |
| 20260507192144 | 56 | 289 | 0.0 | 0.0 | 0.00 | 0.24 | 0.00 | 78 | 1009.8 |
| 20260507191641 | 56 | 225 | 0.0 | 0.0 | 0.00 | 0.24 | 0.00 | 78 | 1010.0 |
| 20260507191144 | 56 | 300 | 0.0 | 0.0 | 0.00 | 0.24 | 0.00 | 79 | 1010.2 |
| 20260507190641 | 55 | 194 | 0.0 | 0.0 | 0.00 | 0.24 | 0.00 | 80 | 1010.1 |
| 20260507190135 | 55 | 209 | 0.0 | 0.0 | 0.00 | 0.24 | 0.00 | 82 | 1010.2 |
| 20260507185638 | 55 | 212 | 0.0 | 0.0 | 0.00 | 0.24 | 0.00 | 85 | 1010.2 |
| 20260507185138 | 54 | 214 | 0.0 | 0.0 | 0.00 | 0.24 | 0.00 | 82 | 1010.3 |
| 20260507184635 | 54 | 214 | 0.0 | 0.0 | 0.00 | 0.24 | 0.00 | 82 | 1010.3 |
| 20260507184135 | 54 | 213 | 0.0 | 0.0 | 0.00 | 0.24 | 0.00 | 82 | 1010.4 |
| 20260507183644 | 54 | 217 | 0.0 | 0.0 | 0.00 | 0.24 | 0.00 | 82 | 1010.4 |
| 20260507183141 | 54 | 222 | 0.0 | 0.0 | 0.00 | 0.24 | 0.00 | 82 | 1010.4 |
| 20260507182638 | 54 | 222 | 0.0 | 0.0 | 0.00 | 0.24 | 0.00 | 84 | 1010.5 |
| 20260507182135 | 54 | 221 | 0.0 | 0.0 | 0.00 | 0.24 | 0.00 | 84 | 1010.3 |
| 20260507181638 | 54 | 178 | 0.0 | 0.0 | 0.00 | 0.24 | 0.00 | 84 | 1010.5 |
| 20260507181138 | 54 | 177 | 0.0 | 0.0 | 0.00 | 0.24 | 0.00 | 85 | 1010.4 |
| 20260507180638 | 53 | 177 | 0.0 | 0.0 | 0.00 | 0.24 | 0.00 | 83 | 1010.5 |
| 20260507180138 | 53 | 201 | 0.0 | 0.0 | 0.00 | 0.24 | 0.00 | 85 | 1010.4 |
| 20260507175638 | 53 | 201 | 0.0 | 0.0 | 0.00 | 0.24 | 0.00 | 84 | 1010.4 |
| 20260507175135 | 53 | 201 | 0.0 | 0.0 | 0.00 | 0.24 | 0.00 | 85 | 1010.5 |
| 20260507174635 | 53 | 201 | 0.0 | 0.0 | 0.00 | 0.24 | 0.00 | 85 | 1010.4 |
| 20260507174135 | 53 | 201 | 0.0 | 0.0 | 0.00 | 0.24 | 0.00 | 86 | 1010.4 |
| 20260507173638 | 53 | 201 | 0.0 | 0.0 | 0.00 | 0.24 | 0.00 | 85 | 1010.5 |
| 20260507173138 | 53 | 202 | 0.0 | 0.0 | 0.00 | 0.24 | 0.00 | 85 | 1010.5 |
| 20260507172635 | 53 | 202 | 0.0 | 0.0 | 0.00 | 0.24 | 0.00 | 84 | 1010.3 |
| 20260507172138 | 53 | 201 | 0.0 | 0.0 | 0.00 | 0.24 | 0.00 | 85 | 1010.5 |
| 20260507171641 | 53 | 201 | 0.0 | 0.0 | 0.00 | 0.24 | 0.00 | 85 | 1010.6 |
| 20260507171135 | 53 | 227 | 0.0 | 0.0 | 0.00 | 0.24 | 0.00 | 85 | 1010.6 |
| 20260507170638 | 53 | 227 | 0.0 | 0.0 | 0.00 | 0.24 | 0.00 | 85 | 1010.7 |
| 20260507170141 | 53 | 264 | 0.0 | 0.0 | 0.00 | 0.24 | 0.00 | 85 | 1010.6 |
| 20260507165638 | 53 | 195 | 0.0 | 0.0 | 0.00 | 0.25 | 0.00 | 85 | 1010.6 |
| 20260507165138 | 53 | 194 | 0.0 | 0.0 | 0.00 | 0.25 | 0.00 | 85 | 1010.6 |
| 20260507164635 | 53 | 96 | 0.0 | 0.0 | 0.00 | 0.25 | 0.00 | 87 | 1010.7 |
| 20260507164138 | 53 | 271 | 0.0 | 0.0 | 0.00 | 0.26 | 0.00 | 86 | 1010.7 |
| 20260507163641 | 53 | 259 | 0.0 | 0.0 | 0.00 | 0.26 | 0.00 | 85 | 1010.7 |
| 20260507163138 | 53 | 288 | 0.0 | 0.0 | 0.00 | 0.26 | 0.00 | 87 | 1010.7 |
| 20260507122611 | 53 | 188 | 0.0 | 0.0 | 0.00 | 0.32 | 0.00 | 91 | 1011.5 |
| 20260507122111 | 53 | 188 | 0.0 | 0.0 | 0.00 | 0.32 | 0.00 | 91 | 1011.5 |
| 20260507121611 | 53 | 188 | 0.0 | 0.0 | 0.00 | 0.32 | 0.00 | 91 | 1011.4 |
| 20260507121111 | 53 | 188 | 0.0 | 0.0 | 0.00 | 0.32 | 0.00 | 91 | 1011.6 |
| 20260507120620 | 53 | 188 | 0.0 | 0.0 | 0.00 | 0.32 | 0.00 | 91 | 1011.4 |
| 20260507120117 | 53 | 188 | 0.0 | 0.0 | 0.00 | 0.32 | 0.00 | 91 | 1011.2 |
| 20260507115611 | 53 | 188 | 0.0 | 0.0 | 0.00 | 0.32 | 0.00 | 91 | 1011.2 |
| 20260507115111 | 53 | 188 | 0.0 | 0.0 | 0.00 | 0.32 | 0.00 | 92 | 1011.4 |
| 20260507114611 | 53 | 188 | 0.0 | 0.0 | 0.00 | 0.32 | 0.00 | 92 | 1011.3 |
| 20260507114117 | 53 | 188 | 0.0 | 0.0 | 0.00 | 0.32 | 0.00 | 93 | 1011.1 |
| 20260507113615 | 54 | 187 | 0.0 | 0.0 | 0.00 | 0.32 | 0.00 | 93 | 1011.3 |
| 20260507113111 | 54 | 187 | 0.0 | 0.0 | 0.00 | 0.32 | 0.00 | 93 | 1011.2 |
| 20260507112611 | 54 | 187 | 0.0 | 0.0 | 0.00 | 0.32 | 0.00 | 93 | 1011.3 |
| 20260507112114 | 54 | 187 | 0.0 | 0.0 | 0.00 | 0.32 | 0.00 | 93 | 1011.5 |
| 20260507111611 | 54 | 187 | 0.0 | 0.0 | 0.00 | 0.32 | 0.00 | 93 | 1011.1 |
| 20260507111111 | 54 | 187 | 0.0 | 0.0 | 0.00 | 0.32 | 0.00 | 93 | 1011.1 |
| 20260507110611 | 54 | 187 | 0.0 | 0.0 | 0.00 | 0.32 | 0.00 | 94 | 1010.7 |
| 20260507110114 | 54 | 187 | 0.0 | 0.0 | 0.00 | 0.32 | 0.00 | 94 | 1010.7 |
| 20260507105612 | 54 | 187 | 0.0 | 0.0 | 0.00 | 0.32 | 0.00 | 94 | 1010.8 |
| 20260507105111 | 54 | 187 | 0.0 | 0.0 | 0.00 | 0.32 | 0.00 | 93 | 1010.7 |
| 20260507104611 | 54 | 187 | 0.0 | 0.0 | 0.00 | 0.32 | 0.00 | 93 | 1010.8 |
| 20260507104111 | 54 | 187 | 0.0 | 0.0 | 0.00 | 0.32 | 0.00 | 93 | 1010.6 |
| 20260507103614 | 54 | 187 | 0.0 | 0.0 | 0.00 | 0.32 | 0.00 | 93 | 1010.6 |
| 20260507103111 | 54 | 187 | 0.0 | 0.0 | 0.00 | 0.32 | 0.00 | 93 | 1010.8 |
| 20260507102611 | 54 | 187 | 0.0 | 0.0 | 0.00 | 0.32 | 0.00 | 93 | 1010.4 |
| 20260507102119 | 54 | 187 | 0.0 | 0.0 | 0.00 | 0.32 | 0.00 | 93 | 1010.5 |
| 20260507101611 | 54 | 187 | 0.0 | 0.0 | 0.00 | 0.32 | 0.00 | 93 | 1010.7 |
| 20260507101114 | 54 | 187 | 0.0 | 0.0 | 0.00 | 0.32 | 0.00 | 93 | 1010.5 |
| 20260507100611 | 54 | 187 | 0.0 | 0.0 | 0.00 | 0.32 | 0.00 | 93 | 1010.5 |
| 20260507100114 | 54 | 187 | 0.0 | 0.0 | 0.00 | 0.32 | 0.00 | 93 | 1010.6 |
| 20260507095614 | 54 | 187 | 0.0 | 0.0 | 0.00 | 0.32 | 0.00 | 93 | 1010.5 |
| 20260507095114 | 54 | 190 | 0.0 | 0.0 | 0.00 | 0.32 | 0.00 | 93 | 1010.8 |
| 20260507094611 | 54 | 190 | 0.0 | 0.0 | 0.00 | 0.32 | 0.00 | 93 | 1010.9 |
| 20260507094115 | 54 | 191 | 0.0 | 0.0 | 0.00 | 0.32 | 0.00 | 93 | 1010.7 |
| 20260507093614 | 54 | 191 | 0.0 | 0.0 | 0.00 | 0.32 | 0.00 | 93 | 1011.0 |
| 20260507093111 | 54 | 211 | 0.0 | 0.0 | 0.00 | 0.32 | 0.00 | 93 | 1011.2 |
| 20260507092620 | 55 | 211 | 0.0 | 0.0 | 0.00 | 0.32 | 0.00 | 93 | 1010.8 |
| 20260507092114 | 55 | 211 | 0.0 | 0.0 | 0.00 | 0.32 | 0.00 | 93 | 1010.6 |
| 20260507091614 | 55 | 211 | 0.0 | 0.0 | 0.00 | 0.32 | 0.00 | 93 | 1010.7 |
| 20260507091120 | 55 | 217 | 0.0 | 0.0 | 0.00 | 0.32 | 0.00 | 92 | 1010.9 |
| 20260507090616 | 55 | 219 | 0.0 | 0.0 | 0.00 | 0.32 | 0.00 | 92 | 1010.9 |
| 20260507090111 | 55 | 290 | 0.0 | 0.0 | 0.00 | 0.32 | 0.00 | 92 | 1010.8 |
| 20260507085613 | 55 | 290 | 0.0 | 0.0 | 0.00 | 0.32 | 0.00 | 92 | 1010.4 |
| 20260507085111 | 55 | 289 | 0.0 | 0.0 | 0.00 | 0.32 | 0.00 | 92 | 1010.8 |
| 20260507084614 | 55 | 289 | 0.0 | 0.0 | 0.00 | 0.32 | 0.00 | 92 | 1010.2 |
| 20260507084111 | 55 | 289 | 0.0 | 0.0 | 0.00 | 0.32 | 0.00 | 91 | 1010.3 |
| 20260507083611 | 55 | 289 | 0.0 | 0.0 | 0.00 | 0.32 | 0.00 | 91 | 1010.7 |
| 20260507083113 | 55 | 290 | 0.0 | 0.0 | 0.00 | 0.32 | 0.00 | 91 | 1010.7 |
| 20260507082610 | 55 | 293 | 0.0 | 0.0 | 0.00 | 0.32 | 0.00 | 90 | 1010.7 |
| 20260507082117 | 55 | 302 | 0.0 | 0.0 | 0.00 | 0.32 | 0.00 | 90 | 1010.8 |
| 20260507081619 | 55 | 194 | 0.0 | 0.0 | 0.00 | 0.32 | 0.00 | 90 | 1011.1 |
| 20260507081111 | 55 | 192 | 0.0 | 0.0 | 0.00 | 0.32 | 0.00 | 90 | 1011.1 |
| 20260507080610 | 55 | 180 | 0.0 | 0.0 | 0.00 | 0.32 | 0.00 | 91 | 1010.9 |
| 20260507080111 | 56 | 208 | 0.0 | 0.0 | 0.00 | 0.32 | 0.00 | 91 | 1011.2 |
| 20260507075619 | 56 | 207 | 0.0 | 0.0 | 0.00 | 0.32 | 0.00 | 91 | 1011.1 |
| 20260507075119 | 56 | 229 | 0.0 | 0.0 | 0.00 | 0.32 | 0.00 | 90 | 1010.9 |
| 20260507074611 | 56 | 302 | 0.0 | 0.0 | 0.00 | 0.32 | 0.00 | 90 | 1010.8 |
| 20260507074111 | 56 | 315 | 0.0 | 0.0 | 0.00 | 0.32 | 0.00 | 90 | 1010.4 |
| 20260507073617 | 56 | 306 | 0.0 | 0.0 | 0.00 | 0.32 | 0.00 | 90 | 1010.5 |
| 20260507073110 | 56 | 304 | 0.0 | 0.0 | 0.00 | 0.32 | 0.00 | 90 | 1010.8 |
| 20260507072610 | 56 | 271 | 0.0 | 0.0 | 0.00 | 0.32 | 0.00 | 91 | 1011.1 |
| 20260507072117 | 56 | 290 | 0.0 | 0.0 | 0.00 | 0.32 | 0.00 | 91 | 1011.1 |
| 20260507071613 | 56 | 292 | 0.0 | 0.0 | 0.00 | 0.32 | 0.00 | 91 | 1010.9 |
| 20260507071110 | 56 | 297 | 0.0 | 0.0 | 0.00 | 0.32 | 0.00 | 92 | 1011.4 |
| 20260507070611 | 56 | 244 | 0.0 | 0.0 | 0.00 | 0.32 | 0.00 | 92 | 1011.1 |
| 20260507070111 | 56 | 256 | 0.0 | 0.0 | 0.00 | 0.32 | 0.00 | 92 | 1011.2 |
| 20260507065613 | 57 | 303 | 0.0 | 0.0 | 0.00 | 0.32 | 0.00 | 93 | 1011.1 |
| 20260507065113 | 57 | 275 | 0.0 | 0.0 | 0.00 | 0.32 | 0.00 | 93 | 1011.0 |
| 20260507064611 | 57 | 292 | 0.0 | 0.0 | 0.00 | 0.32 | 0.00 | 93 | 1010.4 |
| 20260507064113 | 57 | 302 | 0.0 | 0.0 | 0.00 | 0.32 | 0.00 | 93 | 1011.2 |
| 20260507063616 | 57 | 288 | 0.0 | 0.0 | 0.00 | 0.32 | 0.00 | 94 | 1011.2 |
| 20260507063113 | 57 | 296 | 0.0 | 0.0 | 0.00 | 0.32 | 0.00 | 94 | 1010.9 |
| 20260507062611 | 57 | 238 | 0.0 | 0.0 | 0.00 | 0.32 | 0.00 | 94 | 1011.4 |
| 20260507062114 | 57 | 257 | 0.0 | 0.0 | 0.00 | 0.32 | 0.00 | 94 | 1011.4 |
| 20260507061610 | 57 | 288 | 0.0 | 0.0 | 0.00 | 0.32 | 0.00 | 95 | 1011.5 |
| 20260507061111 | 57 | 288 | 0.0 | 0.0 | 0.00 | 0.32 | 0.00 | 95 | 1011.2 |
| 20260507060614 | 57 | 291 | 0.0 | 0.0 | 0.00 | 0.32 | 0.00 | 95 | 1011.1 |
| 20260507060113 | 58 | 300 | 0.0 | 0.0 | 0.00 | 0.32 | 0.00 | 95 | 1011.2 |
| 20260507055610 | 58 | 286 | 0.0 | 0.0 | 0.00 | 0.32 | 0.00 | 95 | 1010.6 |
| 20260507055110 | 58 | 294 | 0.0 | 0.0 | 0.00 | 0.32 | 0.00 | 96 | 1010.6 |
| 20260507054611 | 58 | 296 | 0.0 | 0.0 | 0.00 | 0.32 | 0.00 | 96 | 1011.0 |
| 20260507054111 | 58 | 211 | 0.0 | 0.0 | 0.00 | 0.32 | 0.00 | 96 | 1011.1 |
| 20260507053610 | 59 | 234 | 0.0 | 0.0 | 0.00 | 0.32 | 0.00 | 97 | 1011.6 |
| 20260507053110 | 59 | 273 | 0.0 | 0.0 | 0.00 | 0.32 | 0.00 | 97 | 1011.9 |
| 20260507052620 | 59 | 226 | 0.0 | 0.0 | 0.00 | 0.32 | 0.00 | 97 | 1011.5 |
| 20260507052110 | 59 | 225 | 0.0 | 0.0 | 0.00 | 0.32 | 0.00 | 97 | 1011.6 |
| 20260507051610 | 59 | 292 | 0.0 | 0.0 | 0.00 | 0.32 | 0.00 | 97 | 1011.9 |
| 20260507051112 | 59 | 294 | 0.0 | 0.0 | 0.00 | 0.32 | 0.00 | 97 | 1011.8 |
| 20260507050617 | 59 | 286 | 0.0 | 0.0 | 0.01 | 0.32 | 0.00 | 97 | 1012.0 |
| 20260507050111 | 59 | 208 | 0.0 | 0.0 | 0.01 | 0.32 | 0.00 | 96 | 1012.0 |
| 20260507045610 | 59 | 269 | 0.0 | 0.0 | 0.01 | 0.32 | 0.00 | 96 | 1011.8 |
| 20260507045111 | 59 | 269 | 0.0 | 0.0 | 0.01 | 0.32 | 0.00 | 96 | 1011.8 |
| 20260507044611 | 59 | 285 | 0.0 | 0.0 | 0.01 | 0.32 | 0.00 | 96 | 1011.7 |
| 20260507044113 | 59 | 286 | 0.0 | 0.0 | 0.01 | 0.32 | 0.00 | 96 | 1011.4 |
| 20260507043616 | 59 | 286 | 0.0 | 0.0 | 0.01 | 0.32 | 0.00 | 96 | 1011.0 |
| 20260507043120 | 59 | 286 | 0.0 | 0.0 | 0.01 | 0.32 | 0.00 | 95 | 1011.0 |
| 20260507042610 | 59 | 286 | 0.0 | 0.0 | 0.01 | 0.32 | 0.00 | 96 | 1010.9 |
| 20260507042110 | 59 | 286 | 0.0 | 0.0 | 0.01 | 0.32 | 0.00 | 95 | 1011.3 |
| 20260507041616 | 59 | 285 | 0.0 | 0.0 | 0.01 | 0.32 | 0.00 | 95 | 1011.1 |
| 20260507041111 | 59 | 285 | 0.0 | 0.0 | 0.01 | 0.32 | 0.00 | 95 | 1011.2 |
| 20260507040619 | 59 | 285 | 0.0 | 0.0 | 0.00 | 0.31 | 0.00 | 95 | 1011.5 |
| 20260507040111 | 60 | 285 | 0.0 | 0.0 | 0.00 | 0.31 | 0.00 | 95 | 1011.5 |
| 20260507035610 | 60 | 285 | 0.0 | 0.0 | 0.00 | 0.31 | 0.00 | 95 | 1011.5 |
| 20260507035110 | 60 | 285 | 0.0 | 0.0 | 0.01 | 0.31 | 0.00 | 95 | 1011.5 |
| 20260507034616 | 60 | 285 | 0.0 | 0.0 | 0.01 | 0.31 | 0.00 | 94 | 1011.4 |
| 20260507034110 | 60 | 285 | 0.0 | 0.0 | 0.01 | 0.31 | 0.00 | 95 | 1011.2 |
| 20260507033616 | 60 | 285 | 0.0 | 0.0 | 0.01 | 0.31 | 0.00 | 95 | 1011.3 |
| 20260507033110 | 60 | 285 | 0.0 | 0.0 | 0.01 | 0.31 | 0.00 | 95 | 1011.7 |
| 20260507032614 | 60 | 285 | 0.0 | 0.0 | 0.01 | 0.31 | 0.00 | 95 | 1012.0 |
| 20260507032110 | 60 | 285 | 0.0 | 0.0 | 0.01 | 0.31 | 0.00 | 95 | 1012.3 |
| 20260507031616 | 60 | 285 | 0.0 | 0.0 | 0.02 | 0.31 | 0.00 | 95 | 1012.6 |
| 20260507031113 | 60 | 285 | 0.0 | 0.0 | 0.02 | 0.31 | 0.00 | 95 | 1012.9 |
| 20260507030610 | 61 | 285 | 0.0 | 0.0 | 0.02 | 0.31 | 0.00 | 95 | 1013.0 |
| 20260507030116 | 61 | 290 | 0.0 | 0.0 | 0.03 | 0.31 | 0.00 | 95 | 1013.0 |
| 20260507025616 | 61 | 292 | 0.0 | 0.0 | 0.03 | 0.31 | 0.00 | 94 | 1013.1 |
| 20260507025116 | 61 | 259 | 0.0 | 0.0 | 0.04 | 0.30 | 0.00 | 94 | 1013.2 |
| 20260507024613 | 61 | 257 | 0.0 | 0.0 | 0.04 | 0.30 | 0.00 | 94 | 1013.0 |
| 20260507024113 | 61 | 257 | 0.0 | 0.0 | 0.05 | 0.30 | 0.00 | 94 | 1012.7 |
| 20260507023616 | 61 | 256 | 0.0 | 0.0 | 0.06 | 0.30 | 0.00 | 94 | 1012.4 |
| 20260507023119 | 61 | 259 | 0.0 | 0.0 | 0.08 | 0.30 | 0.00 | 94 | 1012.4 |
| 20260507022610 | 61 | 303 | 0.0 | 0.0 | 0.09 | 0.30 | 0.00 | 94 | 1012.3 |
| 20260507022113 | 61 | 275 | 0.0 | 0.0 | 0.10 | 0.30 | 0.00 | 94 | 1012.3 |
| 20260507021610 | 61 | 285 | 0.0 | 0.0 | 0.09 | 0.29 | 0.00 | 93 | 1012.0 |
| 20260507021110 | 61 | 286 | 0.0 | 0.0 | 0.10 | 0.29 | 0.00 | 93 | 1012.5 |
| 20260507020610 | 61 | 206 | 0.0 | 0.0 | 0.10 | 0.29 | 0.00 | 93 | 1012.2 |
| 20260507020113 | 61 | 310 | 0.0 | 0.0 | 0.11 | 0.29 | 0.00 | 94 | 1012.4 |
| 20260507015610 | 61 | 285 | 0.0 | 0.0 | 0.14 | 0.29 | 0.00 | 94 | 1012.3 |
| 20260507015110 | 61 | 240 | 0.0 | 0.0 | 0.14 | 0.26 | 0.00 | 93 | 1011.9 |
| 20260507014613 | 61 | 284 | 0.0 | 0.0 | 0.15 | 0.26 | 0.00 | 92 | 1012.0 |
| 20260507014120 | 61 | 283 | 0.0 | 0.0 | 0.14 | 0.25 | 0.00 | 92 | 1011.9 |
| 20260507013610 | 61 | 306 | 0.0 | 0.0 | 0.13 | 0.24 | 0.00 | 91 | 1011.8 |
| 20260507013116 | 62 | 290 | 0.0 | 0.0 | 0.11 | 0.22 | 0.00 | 89 | 1012.1 |
| 20260507012610 | 62 | 290 | 0.0 | 0.0 | 0.09 | 0.21 | 0.00 | 88 | 1011.7 |
| 20260507012113 | 62 | 291 | 0.0 | 0.0 | 0.09 | 0.19 | 0.00 | 87 | 1011.0 |
| 20260507011613 | 63 | 263 | 0.0 | 0.0 | 0.09 | 0.19 | 0.00 | 86 | 1011.1 |
| 20260507011113 | 63 | 300 | 0.0 | 0.0 | 0.08 | 0.18 | 0.00 | 86 | 1011.6 |
| 20260507010613 | 64 | 218 | 0.0 | 0.0 | 0.08 | 0.18 | 0.00 | 87 | 1011.5 |
| 20260507010110 | 65 | 288 | 0.0 | 0.0 | 0.06 | 0.16 | 0.00 | 87 | 1011.7 |
| 20260507005613 | 65 | 240 | 0.0 | 0.0 | 0.03 | 0.13 | 0.00 | 85 | 1011.9 |
| 20260507005110 | 66 | 325 | 0.0 | 0.0 | 0.01 | 0.11 | 0.00 | 83 | 1011.9 |
| 20260507004613 | 66 | 325 | 0.0 | 0.0 | 0.00 | 0.10 | 0.00 | 83 | 1011.7 |
| 20260507004113 | 66 | 328 | 0.0 | 0.0 | 0.00 | 0.10 | 0.00 | 82 | 1011.2 |
| 20260507003610 | 66 | 163 | 0.0 | 0.0 | 0.00 | 0.10 | 0.00 | 81 | 1011.2 |
| 20260507003113 | 66 | 215 | 0.0 | 0.0 | 0.00 | 0.10 | 0.00 | 80 | 1011.4 |
| 20260507002613 | 66 | 221 | 0.0 | 0.0 | 0.00 | 0.10 | 0.00 | 79 | 1011.4 |
| 20260507002114 | 66 | 195 | 0.0 | 0.0 | 0.00 | 0.10 | 0.00 | 80 | 1011.1 |
| 20260507001616 | 66 | 249 | 0.0 | 0.0 | 0.00 | 0.10 | 0.00 | 79 | 1011.0 |
| 20260507001110 | 66 | 290 | 0.0 | 0.0 | 0.00 | 0.10 | 0.00 | 79 | 1010.6 |
| 20260507000613 | 66 | 251 | 0.0 | 0.0 | 0.00 | 0.10 | 0.00 | 79 | 1010.6 |
| 20260507000110 | 66 | 278 | 0.0 | 0.0 | 0.00 | 0.10 | 0.00 | 79 | 1010.6 |
| 20260506235616 | 67 | 298 | 0.0 | 0.0 | 0.00 | 0.10 | 0.00 | 79 | 1010.4 |
| 20260506235110 | 67 | 239 | 0.0 | 0.0 | 0.00 | 0.10 | 0.00 | 79 | 1010.2 |
| 20260506234613 | 67 | 298 | 0.0 | 0.0 | 0.00 | 0.10 | 0.00 | 79 | 1010.3 |
| 20260506234110 | 67 | 261 | 0.0 | 0.0 | 0.00 | 0.10 | 0.00 | 78 | 1010.3 |
| 20260506233613 | 67 | 277 | 0.0 | 0.0 | 0.00 | 0.10 | 0.00 | 78 | 1010.3 |
| 20260506233113 | 67 | 271 | 0.0 | 0.0 | 0.00 | 0.10 | 0.00 | 78 | 1010.2 |
| 20260506232619 | 67 | 219 | 0.0 | 0.0 | 0.00 | 0.10 | 0.00 | 78 | 1010.5 |
| 20260506232110 | 67 | 280 | 0.0 | 0.0 | 0.00 | 0.10 | 0.00 | 78 | 1010.6 |
| 20260506231619 | 67 | 285 | 0.0 | 0.0 | 0.00 | 0.10 | 0.00 | 77 | 1010.7 |
| 20260506231110 | 67 | 278 | 0.0 | 0.0 | 0.00 | 0.10 | 0.00 | 77 | 1010.5 |
| 20260506230616 | 68 | 285 | 0.0 | 0.0 | 0.00 | 0.10 | 0.00 | 77 | 1010.7 |
| 20260506230110 | 68 | 257 | 0.0 | 0.0 | 0.00 | 0.10 | 0.00 | 76 | 1010.6 |
| 20260506225613 | 68 | 286 | 0.0 | 0.0 | 0.00 | 0.10 | 0.00 | 76 | 1010.0 |
| 20260506225113 | 68 | 307 | 0.0 | 0.0 | 0.00 | 0.10 | 0.00 | 77 | 1010.1 |
| 20260506224613 | 68 | 280 | 0.0 | 0.0 | 0.00 | 0.10 | 0.00 | 77 | 1010.0 |
| 20260506224110 | 68 | 294 | 0.0 | 0.0 | 0.00 | 0.10 | 0.00 | 77 | 1010.8 |
| 20260506223610 | 68 | 269 | 0.0 | 0.0 | 0.00 | 0.10 | 0.00 | 77 | 1010.8 |
| 20260506223110 | 68 | 13 | 0.0 | 0.0 | 0.00 | 0.10 | 0.00 | 77 | 1010.8 |
| 20260506222616 | 68 | 244 | 0.0 | 0.0 | 0.00 | 0.10 | 0.00 | 77 | 1010.8 |
| 20260506222113 | 68 | 284 | 0.0 | 0.0 | 0.00 | 0.10 | 0.00 | 76 | 1010.8 |
| 20260506221610 | 68 | 281 | 0.0 | 0.0 | 0.00 | 0.10 | 0.00 | 76 | 1010.7 |
| 20260506221110 | 69 | 228 | 0.0 | 0.0 | 0.00 | 0.10 | 0.00 | 76 | 1010.6 |
| 20260506220611 | 69 | 251 | 0.0 | 0.0 | 0.00 | 0.10 | 0.00 | 76 | 1010.4 |
| 20260506220110 | 69 | 318 | 0.0 | 0.0 | 0.00 | 0.10 | 0.00 | 76 | 1010.4 |
| 20260506215610 | 69 | 231 | 0.0 | 0.0 | 0.00 | 0.10 | 0.00 | 75 | 1010.3 |
| 20260506215116 | 70 | 238 | 0.0 | 0.0 | 0.00 | 0.10 | 0.00 | 75 | 1010.4 |
| 20260506214613 | 70 | 267 | 0.0 | 0.0 | 0.00 | 0.10 | 0.00 | 75 | 1010.4 |
| 20260506214113 | 70 | 287 | 0.0 | 0.0 | 0.00 | 0.10 | 0.00 | 75 | 1010.2 |
| 20260506213613 | 71 | 265 | 0.0 | 0.0 | 0.00 | 0.10 | 0.00 | 75 | 1010.0 |
| 20260506213113 | 70 | 234 | 0.0 | 0.0 | 0.00 | 0.10 | 0.00 | 77 | 1010.1 |
| 20260506212610 | 70 | 5 | 0.0 | 0.0 | 0.00 | 0.10 | 0.00 | 80 | 1009.9 |
| 20260506212110 | 69 | 293 | 0.0 | 0.0 | 0.00 | 0.10 | 0.00 | 84 | 1010.0 |
| 20260506211613 | 68 | 278 | 0.0 | 0.0 | 0.00 | 0.10 | 0.00 | 83 | 1009.9 |
| 20260506211110 | 68 | 213 | 0.0 | 0.0 | 0.00 | 0.10 | 0.00 | 82 | 1009.9 |
| 20260506210610 | 68 | 343 | 0.0 | 0.0 | 0.00 | 0.10 | 0.00 | 82 | 1009.9 |
| 20260506210116 | 68 | 256 | 0.0 | 0.0 | 0.00 | 0.10 | 0.00 | 83 | 1010.0 |
| 20260506205610 | 68 | 301 | 0.0 | 0.0 | 0.00 | 0.10 | 0.00 | 82 | 1010.0 |
| 20260506205110 | 68 | 230 | 0.0 | 0.0 | 0.00 | 0.10 | 0.00 | 83 | 1009.9 |
| 20260506204616 | 68 | 300 | 0.0 | 0.0 | 0.00 | 0.10 | 0.00 | 84 | 1009.9 |
| 20260506204110 | 67 | 227 | 0.0 | 0.0 | 0.00 | 0.10 | 0.00 | 84 | 1009.8 |
| 20260506203610 | 67 | 236 | 0.0 | 0.0 | 0.00 | 0.10 | 0.00 | 84 | 1009.9 |
| 20260506203112 | 67 | 251 | 0.0 | 0.0 | 0.00 | 0.10 | 0.00 | 85 | 1010.1 |
| 20260506202613 | 67 | 280 | 0.0 | 0.0 | 0.00 | 0.10 | 0.00 | 86 | 1010.1 |
| 20260506202113 | 67 | 320 | 0.0 | 0.0 | 0.00 | 0.10 | 0.00 | 86 | 1010.1 |
| 20260506201610 | 66 | 319 | 0.0 | 0.0 | 0.00 | 0.10 | 0.00 | 86 | 1010.1 |
| 20260506201109 | 66 | 267 | 0.0 | 0.0 | 0.00 | 0.10 | 0.00 | 86 | 1010.1 |
| 20260506200610 | 66 | 317 | 0.0 | 0.0 | 0.00 | 0.10 | 0.00 | 86 | 1010.1 |
| 20260506200113 | 66 | 274 | 0.0 | 0.0 | 0.00 | 0.10 | 0.00 | 86 | 1010.1 |
| 20260506195610 | 66 | 189 | 0.0 | 0.0 | 0.00 | 0.10 | 0.00 | 87 | 1010.0 |
| 20260506195109 | 66 | 321 | 0.0 | 0.0 | 0.00 | 0.10 | 0.00 | 87 | 1010.1 |
| 20260506194610 | 66 | 235 | 0.0 | 0.0 | 0.00 | 0.10 | 0.00 | 88 | 1010.2 |
| 20260506194110 | 66 | 237 | 0.0 | 0.0 | 0.00 | 0.10 | 0.00 | 89 | 1010.1 |
| 20260506193609 | 66 | 297 | 0.0 | 0.0 | 0.00 | 0.10 | 0.00 | 90 | 1010.1 |